Preston, Minnesota, United States (55965)
Lat: 43.67N, Lon: 92.08W
Wx Zone: MNZ095
Local Info
Past Weather Observations for Wednesday, April 16, 2014

NOTE: This archive is for the closest National Weather Service station to Preston. Information may differ from the station used for current weather conditions.

Time Weather Temperature Dewpoint Humidity Pressure Winds Precip Visibility
23:52
Mostly Cloudy
32°F / 0°C 19°F / -7°C 60% 30.06 in
(1018 mb)
SE 9.2 mph
(SE 15 kph)
- 10SM
23:32
Overcast
32°F / 0°C 19°F / -7°C 60% 30.06 in
(1018 mb)
SE 8.1 mph
(SE 13 kph)
- 10SM
23:12
Overcast
32°F / 0°C 21°F / -6°C 64% 30.09 in
(1019 mb)
SE 5.8 mph
(SE 9 kph)
- 10SM
22:52
Overcast
32°F / 0°C 19°F / -7°C 60% 30.09 in
(1019 mb)
ESE 5.8 mph
(ESE 9 kph)
- 10SM
22:32
Overcast
32°F / 0°C 19°F / -7°C 60% 30.09 in
(1019 mb)
ESE 3.5 mph
(ESE 6 kph)
- 10SM
22:12
Overcast
32°F / 0°C 18°F / -8°C 55% 30.09 in
(1019 mb)
SE 5.8 mph
(SE 9 kph)
- 10SM
21:52
Overcast
32°F / 0°C 18°F / -8°C 55% 30.09 in
(1019 mb)
SE 5.8 mph
(SE 9 kph)
- 10SM
21:32
Overcast
32°F / 0°C 18°F / -8°C 55% 30.09 in
(1019 mb)
SE 5.8 mph
(SE 9 kph)
- 10SM
21:12
Mostly Cloudy
32°F / 0°C 18°F / -8°C 55% 30.09 in
(1019 mb)
SE 4.6 mph
(SE 7 kph)
- 10SM
20:52
Clear
30°F / -1°C 18°F / -8°C 59% 30.09 in
(1019 mb)
Calm - 10SM
20:32
Clear
32°F / 0°C 18°F / -8°C 55% 30.09 in
(1019 mb)
SSE 3.5 mph
(SSE 6 kph)
- 10SM
20:12
Partly Cloudy
32°F / 0°C 18°F / -8°C 55% 30.09 in
(1019 mb)
SSE 3.5 mph
(SSE 6 kph)
- 10SM
19:52
Clear
32°F / 0°C 18°F / -8°C 55% 30.09 in
(1019 mb)
Calm - 10SM
19:32
Clear
32°F / 0°C 18°F / -8°C 55% 30.09 in
(1019 mb)
S 3.5 mph
(S 6 kph)
- 10SM
19:12
Partly Cloudy
32°F / 0°C 16°F / -9°C 51% 30.06 in
(1018 mb)
SSE 3.5 mph
(SSE 6 kph)
- 10SM
18:52
Partly Cloudy
32°F / 0°C 18°F / -8°C 55% 30.06 in
(1018 mb)
S 4.6 mph
(S 7 kph)
- 10SM
18:32
Overcast
34°F / 1°C 16°F / -9°C 48% 30.06 in
(1018 mb)
S 3.5 mph
(S 6 kph)
- 10SM
18:12
Overcast
34°F / 1°C 14°F / -10°C 44% 30.06 in
(1018 mb)
S 3.5 mph
(S 6 kph)
- 10SM
17:52
Overcast
34°F / 1°C 14°F / -10°C 44% 30.06 in
(1018 mb)
SW 4.6 mph
(SW 7 kph)
- 10SM
17:32
Mostly Cloudy
34°F / 1°C 14°F / -10°C 44% 30.06 in
(1018 mb)
SW 5.8 mph
(SW 9 kph)
- 10SM
17:12
Partly Cloudy
34°F / 1°C 12°F / -11°C 41% 30.06 in
(1018 mb)
SSW 5.8 mph
(SSW 9 kph)
- 10SM
16:52
Clear
36°F / 2°C 14°F / -10°C 41% 30.06 in
(1018 mb)
SSW 4.6 mph
(SSW 7 kph)
- 10SM
16:32
Clear
34°F / 1°C 16°F / -9°C 48% 30.06 in
(1018 mb)
SSW 6.9 mph
(SSW 11 kph)
- 10SM
16:12
Clear
36°F / 2°C 14°F / -10°C 41% 30.06 in
(1018 mb)
SSW 6.9 mph
(SSW 11 kph)
- 10SM
15:52
Clear
34°F / 1°C 14°F / -10°C 44% 30.06 in
(1018 mb)
S 4.6 mph
(S 7 kph)
- 10SM
15:32
Clear
34°F / 1°C 14°F / -10°C 44% 30.06 in
(1018 mb)
NW 9.2 mph
(NW 15 kph)
- 10SM
15:12
Clear
34°F / 1°C 12°F / -11°C 41% 30.09 in
(1019 mb)
SSW 9.2 mph
(SSW 15 kph)
- 10SM
14:52
Clear
34°F / 1°C 12°F / -11°C 41% 30.09 in
(1019 mb)
SSW 3.5 mph
(SSW 6 kph)
- 10SM
14:32
Clear
34°F / 1°C 14°F / -10°C 44% 30.09 in
(1019 mb)
W 10.4 mph
(W 17 kph)
- 10SM
14:12
Clear
34°F / 1°C 14°F / -10°C 44% 30.09 in
(1019 mb)
W 4.6 mph
(W 7 kph)
- 10SM
13:52
Clear
34°F / 1°C 12°F / -11°C 41% 30.09 in
(1019 mb)
NW 10.4 mph
(NW 17 kph)
- 10SM
13:32
Clear
32°F / 0°C 10°F / -12°C 40% 30.09 in
(1019 mb)
NW 3.5 mph
(NW 6 kph)
- 10SM
13:12
Clear
32°F / 0°C 12°F / -11°C 44% 30.09 in
(1019 mb)
N 4.6 mph
(N 7 kph)
- 10SM
12:52
Clear
32°F / 0°C 14°F / -10°C 47% 30.12 in
(1020 mb)
WNW 4.6 mph
(WNW 7 kph)
- 10SM
12:32
Clear
30°F / -1°C 14°F / -10°C 51% 30.12 in
(1020 mb)
NW 6.9 mph
(NW 11 kph)
- 10SM
12:12
Clear
32°F / 0°C 14°F / -10°C 47% 30.12 in
(1020 mb)
NW 8.1 mph
(NW 13 kph)
- 10SM
11:52
Partly Cloudy
30°F / -1°C 16°F / -9°C 55% 30.12 in
(1020 mb)
W 6.9 mph
(W 11 kph)
- 10SM
11:32
Partly Cloudy
30°F / -1°C 12°F / -11°C 47% 30.15 in
(1021 mb)
NW 9.2 mph
(NW 15 kph)
- 10SM
11:12
Partly Cloudy
30°F / -1°C 12°F / -11°C 47% 30.15 in
(1021 mb)
WNW 8.1 mph
(WNW 13 kph)
- 10SM
10:52
Partly Cloudy
30°F / -1°C 14°F / -10°C 51% 30.15 in
(1021 mb)
WNW 6.9 mph
(WNW 11 kph)
- 10SM
10:32
Mostly Cloudy
28°F / -2°C 12°F / -11°C 51% 30.15 in
(1021 mb)
WNW 9.2 mph
(WNW 15 kph)
- 10SM
10:12
Mostly Cloudy
28°F / -2°C 14°F / -10°C 55% 30.15 in
(1021 mb)
WNW 9.2 mph
(WNW 15 kph)
- 10SM
09:52
Mostly Cloudy
28°F / -2°C 12°F / -11°C 51% 30.15 in
(1021 mb)
NW 6.9 mph
(NW 11 kph)
- 10SM
09:31
Mostly Cloudy
28°F / -2°C 14°F / -10°C 55% 30.15 in
(1021 mb)
WNW 10.4 mph
(WNW 17 kph)
- 10SM
09:12
Mostly Cloudy
27°F / -3°C 14°F / -10°C 59% 30.15 in
(1021 mb)
W 9.2 mph
(W 15 kph)
- 10SM
08:52
Partly Cloudy
25°F / -4°C 14°F / -10°C 63% 30.15 in
(1021 mb)
NW 8.1 mph
(NW 13 kph)
- 10SM
08:32
Partly Cloudy
27°F / -3°C 14°F / -10°C 59% 30.15 in
(1021 mb)
NW 5.8 mph
(NW 9 kph)
- 10SM
08:12
Clear
27°F / -3°C 14°F / -10°C 59% 30.12 in
(1020 mb)
NW 8.1 mph
(NW 13 kph)
- 10SM
07:52
Clear
25°F / -4°C 14°F / -10°C 63% 30.12 in
(1020 mb)
NW 6.9 mph
(NW 11 kph)
- 10SM
07:32
Clear
25°F / -4°C 14°F / -10°C 63% 30.12 in
(1020 mb)
NNW 8.1 mph
(NNW 13 kph)
- 10SM
07:12
Clear
25°F / -4°C 14°F / -10°C 63% 30.12 in
(1020 mb)
N 9.2 mph
(N 15 kph)
- 10SM
06:52
Clear
23°F / -5°C 16°F / -9°C 74% 30.12 in
(1020 mb)
NNW 9.2 mph
(NNW 15 kph)
- 10SM
06:32
Clear
23°F / -5°C 16°F / -9°C 74% 30.12 in
(1020 mb)
NNW 8.1 mph
(NNW 13 kph)
- 10SM
06:12
Clear
23°F / -5°C 16°F / -9°C 74% 30.09 in
(1019 mb)
NW 6.9 mph
(NW 11 kph)
- 10SM
05:52
Clear
21°F / -6°C 16°F / -9°C 80% 30.09 in
(1019 mb)
NW 6.9 mph
(NW 11 kph)
- 10SM
05:32
Clear
23°F / -5°C 16°F / -9°C 74% 30.09 in
(1019 mb)
NW 5.8 mph
(NW 9 kph)
- 10SM
05:12
Partly Cloudy
23°F / -5°C 18°F / -8°C 80% 30.09 in
(1019 mb)
NW 8.1 mph
(NW 13 kph)
- 10SM
04:52
Mostly Cloudy
23°F / -5°C 18°F / -8°C 80% 30.09 in
(1019 mb)
NNW 9.2 mph
(NNW 15 kph)
- 10SM
04:32
Partly Cloudy
23°F / -5°C 18°F / -8°C 80% 30.09 in
(1019 mb)
NNW 6.9 mph
(NNW 11 kph)
- 10SM
04:12
Mostly Cloudy
Light Snow
23°F / -5°C 18°F / -8°C 80% 30.09 in
(1019 mb)
NNW 8.1 mph
(NNW 13 kph)
- 7SM
03:52
Overcast
25°F / -4°C 18°F / -8°C 74% 30.09 in
(1019 mb)
NNW 10.4 mph
(NNW 17 kph)
- 10SM
03:32
Mostly Cloudy
25°F / -4°C 18°F / -8°C 74% 30.09 in
(1019 mb)
NW 8.1 mph
(NW 13 kph)
- 10SM
03:11
Mostly Cloudy
25°F / -4°C 16°F / -9°C 69% 30.06 in
(1018 mb)
NW 9.2 mph
(NW 15 kph)
- 10SM
02:52
Overcast
25°F / -4°C 16°F / -9°C 69% 30.06 in
(1018 mb)
NW 11.5 mph
(NW 19 kph)
- 10SM
02:32
Mostly Cloudy
25°F / -4°C 18°F / -8°C 74% 30.06 in
(1018 mb)
NW 9.2 mph
(NW 15 kph)
- 10SM
02:12
Mostly Cloudy
25°F / -4°C 16°F / -9°C 69% 30.06 in
(1018 mb)
NW 9.2 mph
(NW 15 kph)
- 10SM
01:52
Mostly Cloudy
27°F / -3°C 16°F / -9°C 64% 30.06 in
(1018 mb)
NW 12.7 mph
(NW 20 kph)
- 10SM
01:32
Mostly Cloudy
27°F / -3°C 16°F / -9°C 64% 30.06 in
(1018 mb)
NW 11.5 mph
(NW 19 kph)
- 10SM
01:12
Overcast
27°F / -3°C 16°F / -9°C 64% 30.06 in
(1018 mb)
NW 10.4 mph
(NW 17 kph)
- 10SM
00:52
Overcast
27°F / -3°C 18°F / -8°C 69% 30.06 in
(1018 mb)
NW 9.2 mph
(NW 15 kph)
- 10SM
00:32
Overcast
27°F / -3°C 18°F / -8°C 69% 30.06 in
(1018 mb)
NW 9.2 mph
(NW 15 kph)
- 10SM
00:12
Mostly Cloudy
27°F / -3°C 18°F / -8°C 69% 30.06 in
(1018 mb)
NW 9.2 mph
(NW 15 kph)
- 10SM
Time Weather Temperature Dewpoint Humidity Pressure Winds Precip Visibility


Weather for websites

WeatherForYou.com, LLC is not responsible for any damages or problems caused by this service. Current weather conditions are obtained from the closest station including government and personal stations which may have varying degrees of accuracy. Weather forecasts are derived from the NOAA NDFD. Like all things, this site belongs to Jesus Christ... He just trusts me to maintain it. If you have any questions or comments email webmaster@weatherforyou.com

Copyright © 2014, WeatherForYou.com LLC. All rights reserved.